TimeCDT,TemperatureF,Dew PointF,Humidity,Sea Level PressureIn,VisibilityMPH,Wind Direction,Wind SpeedMPH,Gust SpeedMPH,PrecipitationIn,Events,Conditions,WindDirDegrees,DateUTC
12:51 AM,50.0,36.0,59,30.07,10.0,SSW,5.8,-,N/A,,Clear,210,2012-10-09 05:51:00
1:51 AM,50.0,36.0,59,30.07,10.0,South,6.9,-,N/A,,Clear,190,2012-10-09 06:51:00
2:51 AM,50.0,37.4,62,30.06,10.0,SSW,11.5,-,N/A,,Clear,200,2012-10-09 07:51:00
3:51 AM,48.0,37.9,68,30.05,10.0,South,4.6,-,N/A,,Clear,180,2012-10-09 08:51:00
4:51 AM,46.0,37.9,73,30.04,10.0,South,5.8,-,N/A,,Clear,170,2012-10-09 09:51:00
5:51 AM,46.9,37.9,71,30.06,10.0,South,3.5,-,N/A,,Clear,170,2012-10-09 10:51:00
6:51 AM,46.4,37.4,71,30.06,10.0,South,5.8,-,N/A,,Partly Cloudy,190,2012-10-09 11:51:00
7:51 AM,46.9,39.0,74,30.06,10.0,South,6.9,-,N/A,,Partly Cloudy,190,2012-10-09 12:51:00
8:51 AM,51.8,41.0,67,30.06,10.0,SSW,10.4,-,N/A,,Partly Cloudy,210,2012-10-09 13:51:00
9:51 AM,57.0,41.0,55,30.05,10.0,SSW,15.0,-,N/A,,Partly Cloudy,210,2012-10-09 14:51:00
10:51 AM,62.1,42.1,48,30.04,10.0,SW,13.8,-,N/A,,Partly Cloudy,220,2012-10-09 15:51:00
11:51 AM,64.0,42.1,45,30.01,10.0,SSW,10.4,18.4,N/A,,Scattered Clouds,200,2012-10-09 16:51:00
11:59 AM,64.4,42.8,45,30.01,10.0,SSW,13.8,23.0,N/A,,Partly Cloudy,200,2012-10-09 16:59:00
12:51 PM,66.0,42.1,42,29.98,10.0,SSW,11.5,18.4,N/A,,Mostly Cloudy,200,2012-10-09 17:51:00
1:51 PM,66.9,43.0,42,29.96,10.0,SW,10.4,-,N/A,,Mostly Cloudy,220,2012-10-09 18:51:00
2:51 PM,68.0,42.1,39,29.94,10.0,SSW,13.8,19.6,N/A,,Mostly Cloudy,210,2012-10-09 19:51:00
3:51 PM,68.0,41.0,37,29.92,10.0,South,13.8,-,N/A,,Mostly Cloudy,180,2012-10-09 20:51:00
4:51 PM,66.9,41.0,39,29.92,9.0,SSW,9.2,-,N/A,,Mostly Cloudy,200,2012-10-09 21:51:00
5:51 PM,64.9,39.9,40,29.92,10.0,SSW,9.2,-,N/A,,Mostly Cloudy,200,2012-10-09 22:51:00
6:51 PM,63.0,42.1,46,29.93,10.0,SSW,5.8,-,N/A,,Mostly Cloudy,200,2012-10-09 23:51:00
7:51 PM,61.0,42.1,50,29.93,10.0,South,5.8,-,N/A,,Mostly Cloudy,170,2012-10-10 00:51:00
8:51 PM,61.0,42.1,50,29.93,10.0,South,9.2,-,N/A,,Mostly Cloudy,190,2012-10-10 01:51:00
9:51 PM,61.0,43.0,52,29.94,10.0,SSW,9.2,-,N/A,,Mostly Cloudy,210,2012-10-10 02:51:00
10:51 PM,57.9,44.1,60,29.98,8.0,NNW,18.4,27.6,N/A,,Overcast,340,2012-10-10 03:51:00
11:51 PM,53.1,43.0,69,30.03,10.0,NNW,18.4,23.0,N/A,,Overcast,330,2012-10-10 04:51:00
11:56 PM,53.6,42.8,67,30.04,8.0,North,12.7,23.0,0.00,Rain,Light Rain,350,2012-10-10 04:56:00